Location: Newark
(13.8625°N, 100.5144°E)
Time: 02:11:31
(UTC+00:00)

DELFI C3 - Visible Passes

Search period start: 26 July 2021 00:00
Search period end: 05 August 2021 00:00
Orbit: 530 x 547 km, 97.4° (Epoch: 25 July)

Date Brightness Start Highest point End Pass type
(mag) Time Alt. Az. Time Alt. Az. Time Alt. Az.
26 Jul ? 12:52:53 15° SSE 12:55:59 82° ENE 12:59:48 10° N visible
27 Jul ? 12:45:03 14° SSE 12:48:14 61° ENE 12:52:00 10° N visible
28 Jul ? 12:37:13 13° SSE 12:40:28 45° ENE 12:44:09 10° N visible
29 Jul ? 12:29:22 11° SE 12:32:44 34° ENE 12:36:13 10° NNE visible
30 Jul ? 12:21:45 10° SE 12:24:59 26° ENE 12:28:12 10° NNE visible
31 Jul ? 12:14:22 10° SE 12:17:14 20° ENE 12:20:05 10° NNE visible
31 Jul ? 13:49:45 10° SW 13:51:33 13° W 13:53:22 10° WNW visible
01 Aug ? 12:07:08 10° ESE 12:09:29 16° ENE 12:11:50 10° NE visible
01 Aug ? 13:41:19 10° SW 13:43:45 17° W 13:46:17 10° WNW visible
02 Aug ? 13:33:28 12° SW 13:35:58 22° W 13:38:58 10° NW visible
03 Aug ? 13:25:37 15° SSW 13:28:10 28° W 13:31:30 10° NW visible
04 Aug ? 13:17:45 16° SSW 13:20:22 37° W 13:23:57 10° NNW visible
